[[{"header":{"parameterUnit":"m.s-1","parameterCategory":1,"la1":30.2991,"la2":30.254,"lo1":-89.0895,"lo2":-89.0444,"dy":0.0017,"dx":0.0017,"nx":28,"ny":28,"refTime":"2023-09-03T09:00:00:Z","depth":0,"parameterNumber":2,"parameterNumberName":"U-component_of_WINDS"},"data":[0,0,0,0,0,0,0,0,0,0,0,0,0,0,0,0,0,0,0,0,0,0,0,0,0,0,0,0,0,0,0,0,0,0,0,0,0,0,0,0,0,0,0,0,0,0,0,0,0,0,0,0,0,0,0,0,0,0,-2.9813,-2.9814,0,-2.9896,-2.9897,-2.9898,-2.989,-2.9889,-2.9888,-2.9886,-2.9972,-2.9975,-2.9979,0,0,0,0,0,0,0,0,0,0,0,0,0,-2.9648,-2.9651,-2.9813,-2.9814,-2.9815,-2.9896,-2.9897,-2.9898,-2.989,-2.9889,-2.9887,-2.9886,-2.9971,-2.9975,-2.9979,0,0,0,0,0,0,0,0,0,0,0,0,0,-2.9725,-2.9652,-2.9813,-2.9821,-2.9822,-2.9896,-2.9897,-2.9899,-2.9891,-2.9889,-2.9887,-2.9885,-2.997,-2.9975,-2.998,-3.0051,0,0,-2.9996,-2.9998,0,0,0,0,0,0,0,0,-2.972,-2.9731,-2.9819,-2.982,-2.9822,-2.9881,-2.987,-2.995,-2.9891,-2.9865,-2.9886,-2.9884,-2.9943,-2.9951,-2.997,-3.0055,-3.0058,-2.9996,-2.9999,-3.0002,-3.0003,0,0,0,0,0,0,0,-2.9715,-2.9727,-2.9846,-2.982,-2.9822,-2.9821,-2.9829,-2.9885,-2.9914,-2.9867,-2.9867,-2.9876,-2.9944,-2.9965,-2.9972,-3.006,-2.9996,-3.0001,-3.0004,-3.0006,-3.0206,-3.0208,0,0,0,0,0,0,-2.9708,-2.9723,-2.9843,-2.9848,-2.9765,-2.9825,-2.9835,-2.9864,-2.9913,-2.9919,-2.9878,-2.9876,-2.9957,-2.9966,-2.9975,-3.0061,-3.0002,-3.0006,-3.0009,-3.0204,-3.0206,-3.0209,0,0,0,0,0,0,-2.9704,-2.9718,-2.984,-2.9785,-2.9801,-2.983,-2.9863,-2.9867,-2.9888,-2.9922,-2.9927,-2.9895,-2.9956,-2.9968,-3.0032,-3.0064,-3.0009,-3.0014,-3.0201,-3.0205,-3.0208,-3.0233,0,0,0,0,0,0,-2.9699,-2.9717,-2.9744,-2.9786,-2.9804,-2.9895,-2.9865,-2.987,-2.9897,-2.9895,-2.9939,-2.9944,-2.9956,-3.0024,-3.0037,-3.007,-3.0018,-3.0198,-3.0203,-3.0206,-3.0229,-3.0236,-3.0243,0,0,0,0,0,-2.9694,-2.9748,-2.9746,-2.976,-2.9838,-2.9897,-2.9907,-2.9919,-2.99,-2.9927,-2.9949,-2.9943,-3.0059,-3.0031,-3.0045,-3.008,-3.0196,-3.0201,-3.0206,-3.0226,-3.0235,-3.0242,0,0,0,0,0,0,-2.971,-2.9754,-2.9751,-2.9821,-2.9855,-2.9895,-2.993,-2.9928,-2.9968,-2.9965,-2.9978,-2.9988,-3.0052,-3.0073,-3.0041,-3.0151,-3.0125,-3.0133,-3.0135,-3.0144,-3.015,-3.0143,-3.0022,0,0,0,0,0,-2.9721,-2.9765,-2.9801,-2.9859,-2.9877,-2.99,-2.9926,-2.9933,-2.9969,-2.9983,-3.0009,-3.0045,-3.0089,-3.0118,-3.0161,-3.0233,-3.0242,-3.0264,-3.0271,-3.0276,-3.0282,-3.0321,-3.0331,-3.0225,-3.0225,-3.0225,0,0,-2.9746,-2.9775,-2.9802,-2.9863,-2.989,-2.9935,-2.9913,-2.9961,-2.9995,-2.9991,-3.0052,-3.0073,-3.0113,-3.0181,-3.0213,-3.02,-3.0314,-3.0282,-3.0286,-3.029,-3.0327,-3.0338,-3.0346,-3.0228,-3.0228,-3.0227,0,0,-2.9813,-2.984,-2.9891,-2.9918,-2.996,-2.9975,-2.9987,-3.0028,-3.0041,-3.0104,-3.0101,-3.0142,-3.0218,-3.0246,-3.0271,-3.035,-3.0345,-3.0363,-3.0398,-3.0436,-3.0444,-3.0452,-3.0479,-3.0489,-3.037,-3.037,-3.037,0,-2.9838,-2.9905,-2.9917,-2.9966,-2.9993,-2.9992,-3.0043,-3.007,-3.0123,-3.0142,-3.0127,-3.0223,-3.025,-3.0324,-3.0343,-3.0364,-3.0378,-3.0358,-3.0442,-3.045,-3.0457,-3.0483,-3.0493,-3.0372,-3.0372,-3.0371,-3.0371,0,-2.9933,-2.998,-3.0016,-3.0067,-3.0099,-3.0149,-3.0169,-3.0199,-3.0203,-3.022,-3.0284,-3.0316,-3.0365,-3.0384,-3.0389,-3.0459,-3.045,-3.0439,-3.0413,-3.0469,-3.0493,-3.0503,-3.0374,-3.0374,-3.0373,-3.0373,0,0,-3.0012,-3.0069,-3.0082,-3.0105,-3.015,-3.0187,-3.0237,-3.0285,-3.031,-3.0347,-3.0389,-3.0454,-3.0444,-3.0472,-3.048,-3.0514,-3.0573,-3.0499,-3.05,-3.051,-3.0652,-3.0659,-3.067,-3.0571,-3.0573,-3.0575,-3.0648,0,-3.0082,-3.017,-3.0183,-3.0261,-3.0304,-3.0304,-3.0347,-3.038,-3.0398,-3.0438,-3.0457,-3.0503,-3.0487,-3.0503,-3.0537,-3.0559,-3.0601,-3.0554,-3.061,-3.0612,-3.0598,-3.0683,-3.0691,-3.0758,-3.0658,-3.0659,-3.0661,0,-3.0176,-3.0215,-3.0297,-3.0336,-3.0355,-3.0394,-3.0438,-3.0476,-3.0514,-3.0524,-3.0556,-3.056,-3.0612,-3.0585,-3.0657,-3.0624,-3.0648,-3.0663,-3.0666,-3.067,-3.0638,-3.0688,-3.078,-3.0789,-3.0676,-3.0675,-3.0674,0,-3.0224,-3.0297,-3.0355,-3.0375,-3.0423,-3.045,-3.0471,-3.0507,-3.0534,-3.0574,-3.0592,-3.0637,-3.0662,-3.0697,-3.0713,-3.0692,-3.0784,-3.0758,-3.0794,-3.0793,-3.0812,-3.081,-3.0907,-3.083,-3.0829,-3.0829,-3.0829,0,-3.03,-3.035,-3.0377,-3.0413,-3.0468,-3.0483,-3.0538,-3.0559,-3.059,-3.063,-3.0634,-3.0671,-3.0691,-3.0731,-3.0745,-3.0802,-3.0813,-3.0823,-3.0826,-3.0822,-3.082,-3.0837,-3.0832,-3.0832,-3.0831,-3.0831,-3.083,0,-3.0362,-3.0382,-3.0445,-3.0485,-3.0497,-3.0536,-3.057,-3.0605,-3.0623,-3.0673,-3.0686,-3.0714,-3.0762,-3.0782,-3.0841,-3.085,-3.0915,-3.0915,-3.0902,-3.0902,-3.0936,-3.0932,-3.1046,-3.1061,-3.0975,-3.0976,-3.0977,0,-3.0409,-3.0447,-3.0491,-3.0518,-3.054,-3.0583,-3.0611,-3.0627,-3.0657,-3.0702,-3.0731,-3.0779,-3.0818,-3.0895,-3.092,-3.0966,-3.0966,-3.1003,-3.0973,-3.0967,-3.0965,-3.0962,-3.0965,-3.1007,-3.1008,-3.1009,-3.101,0,-3.049,-3.0498,-3.0538,-3.0582,-3.0615,-3.0651,-3.0686,-3.0707,-3.0729,-3.0762,-3.0811,-3.0841,-3.0901,-3.0948,-3.0995,-3.1017,-3.1017,-3.1019,-3.1029,-3.1025,-3.1016,-3.102,-3.0915,-3.1016,-3.1015,-3.1015,-3.1015,-3.1014,-3.0545,-3.0579,-3.0615,-3.0659,-3.0687,-3.0719,-3.0754,-3.0776,-3.0816,-3.0866,-3.0873,-3.0925,-3.0962,-3.1025,-3.1049,-3.109,-3.108,-3.1096,-3.11,-3.1103,-3.1104,-3.101,-3.1099,-3.1098,-3.1098,-3.1098,-3.1098,0,-3.0625,-3.0648,-3.0689,-3.0737,-3.0772,-3.0769,-3.0808,-3.0837,-3.0882,-3.0917,-3.0955,-3.101,-3.1056,-3.1086,-3.1132,-3.1159,-3.1161,-3.1171,-3.1168,-3.1173,-3.111,-3.1096,-3.1169,-3.1169,-3.1169,-3.1169,-3.1169,-3.1169,-3.0671,-3.0727,-3.074,-3.081,-3.0833,-3.0883,-3.0905,-3.0935,-3.0962,-3.1024,-3.1062,-3.108,-3.1113,-3.1162,-3.1204,-3.1211,-3.1228,-3.1238,-3.1245,-3.1186,-3.1178,-3.1171,-3.1157,-3.1242,-3.1242,-3.1305,-3.1305,-3.1306]},{"header":{"parameterUnit":"m.s-1","parameterCategory":1,"la1":30.2991,"la2":30.254,"lo1":-89.0895,"lo2":-89.0444,"dy":0.0017,"dx":0.0017,"nx":28,"ny":28,"refTime":"2023-09-03T09:00:00:Z","depth":0,"parameterNumber":3,"parameterNumberName":"V-component_of_WINDS"},"data":[0,0,0,0,0,0,0,0,0,0,0,0,0,0,0,0,0,0,0,0,0,0,0,0,0,0,0,0,0,0,0,0,0,0,0,0,0,0,0,0,0,0,0,0,0,0,0,0,0,0,0,0,0,0,0,0,0,0,4.794,4.794,0,4.7949,4.7949,4.7949,4.788,4.7878,4.7876,4.7874,4.7883,4.7885,4.7887,0,0,0,0,0,0,0,0,0,0,0,0,0,4.786,4.7862,4.794,4.794,4.794,4.7949,4.7949,4.7949,4.7881,4.7878,4.7876,4.7874,4.7882,4.7885,4.7887,0,0,0,0,0,0,0,0,0,0,0,0,0,4.7885,4.7863,4.794,4.7907,4.7904,4.7949,4.7949,4.7949,4.7881,4.7878,4.7875,4.7873,4.7882,4.7885,4.7888,4.7965,0,0,4.7897,4.7898,0,0,0,0,0,0,0,0,4.7883,4.7888,4.7911,4.7909,4.7906,4.791,4.7924,4.7954,4.7882,4.789,4.7874,4.7871,4.7895,4.7896,4.7904,4.7965,4.7965,4.7897,4.7899,4.79,4.7901,0,0,0,0,0,0,0,4.7882,4.7887,4.7943,4.7912,4.7908,4.7891,4.7891,4.793,4.7908,4.7889,4.7884,4.7886,4.7892,4.7902,4.7904,4.7965,4.7897,4.79,4.7902,4.7903,4.8087,4.809,0,0,0,0,0,0,4.7885,4.7886,4.7943,4.7943,4.7887,4.7895,4.7895,4.7912,4.7908,4.7904,4.7888,4.7883,4.7898,4.7901,4.7904,4.7991,4.79,4.7903,4.7905,4.8084,4.8087,4.8091,0,0,0,0,0,0,4.7883,4.789,4.7943,4.7913,4.7919,4.7899,4.7919,4.7914,4.7923,4.7907,4.7903,4.7902,4.7896,4.79,4.7949,4.7991,4.7905,4.7907,4.808,4.8085,4.8089,4.8168,0,0,0,0,0,0,4.7881,4.789,4.792,4.7915,4.7921,4.7988,4.7921,4.7916,4.7928,4.7921,4.7919,4.7916,4.7894,4.7945,4.7953,4.7993,4.791,4.8076,4.8082,4.8088,4.8161,4.8174,4.8186,0,0,0,0,0,4.7879,4.7942,4.7922,4.7929,4.7957,4.7991,4.7994,4.7968,4.7932,4.7961,4.7951,4.7916,4.7986,4.7951,4.7959,4.8001,4.8074,4.8081,4.8087,4.8156,4.8172,4.8185,0,0,0,0,0,0,4.7952,4.7941,4.7918,4.7982,4.7988,4.7979,4.8015,4.7986,4.8003,4.7995,4.7962,4.7962,4.8016,4.8014,4.7975,4.8074,4.8023,4.8032,4.8073,4.8088,4.81,4.8098,4.7912,0,0,0,0,0,4.7976,4.8005,4.7993,4.805,4.8055,4.8035,4.8048,4.8028,4.8033,4.8035,4.8028,4.8034,4.8057,4.8073,4.8094,4.8162,4.8159,4.8195,4.8207,4.8217,4.8224,4.8257,4.8272,4.8113,4.8113,4.8113,0,0,4.8025,4.8022,4.8043,4.8065,4.8067,4.8097,4.8037,4.8072,4.8093,4.804,4.8085,4.8081,4.8086,4.8144,4.817,4.8144,4.8268,4.8226,4.8234,4.8235,4.8266,4.8281,4.8294,4.8118,4.8117,4.8116,0,0,4.8129,4.8131,4.8177,4.8181,4.8185,4.8171,4.8183,4.8178,4.8173,4.8219,4.8179,4.8204,4.8245,4.8249,4.8256,4.8362,4.8329,4.837,4.8432,4.8465,4.8477,4.8488,4.8523,4.8536,4.8377,4.8377,4.8378,0,4.8189,4.8232,4.8205,4.8241,4.8251,4.8205,4.8251,4.8256,4.8267,4.8275,4.8246,4.8295,4.8295,4.8353,4.8378,4.8387,4.8397,4.8368,4.8478,4.8488,4.8498,4.8531,4.8544,4.8382,4.8381,4.8381,4.8381,0,4.8304,4.8335,4.8372,4.8383,4.8398,4.8439,4.8417,4.8435,4.8414,4.8403,4.8448,4.8447,4.8465,4.8478,4.8458,4.8533,4.8516,4.8484,4.8431,4.8518,4.8548,4.8561,4.8389,4.8387,4.8386,4.8384,0,0,4.8453,4.8448,4.8461,4.8465,4.8466,4.8489,4.8528,4.8546,4.8561,4.8571,4.8601,4.8637,4.8606,4.8615,4.8594,4.8624,4.8704,4.8587,4.8587,4.8606,4.8783,4.8805,4.882,4.8684,4.8686,4.8688,4.8781,0,4.8551,4.8616,4.8592,4.8659,4.8686,4.8643,4.8676,4.868,4.8671,4.8692,4.8682,4.8707,4.8666,4.8671,4.8698,4.8688,4.8738,4.8682,4.8709,4.871,4.8706,4.8836,4.8859,4.8948,4.8793,4.8795,4.8797,0,4.8674,4.8688,4.8757,4.8752,4.8762,4.8793,4.8806,4.8827,4.8831,4.8822,4.8832,4.8805,4.8842,4.8792,4.8841,4.8803,4.8814,4.881,4.8813,4.8812,4.8756,4.8835,4.8975,4.8987,4.8815,4.8814,4.8812,0,4.8771,4.8807,4.8852,4.8857,4.8854,4.8875,4.8875,4.8876,4.8887,4.89,4.8907,4.8924,4.8932,4.8946,4.8924,4.889,4.8975,4.8924,4.8967,4.8967,4.8984,4.8982,4.9124,4.8996,4.8996,4.8996,4.8996,0,4.8882,4.8925,4.8895,4.8923,4.897,4.8942,4.8989,4.8984,4.8985,4.901,4.8975,4.8999,4.897,4.8992,4.8975,4.9017,4.9022,4.9014,4.9009,4.9016,4.9016,4.9019,4.9011,4.8999,4.8999,4.8998,4.8997,0,4.8997,4.8979,4.9025,4.9018,4.9017,4.9051,4.9045,4.9069,4.9058,4.909,4.9096,4.9078,4.9102,4.9082,4.9105,4.9094,4.9148,4.9135,4.9146,4.9141,4.9184,4.9179,4.933,4.9348,4.9212,4.9213,4.9214,0,4.9067,4.9099,4.9094,4.9108,4.911,4.9134,4.9145,4.912,4.9133,4.9139,4.9163,4.9183,4.9197,4.9236,4.9225,4.9242,4.9227,4.928,4.923,4.9235,4.9224,4.9221,4.9223,4.9288,4.929,4.9291,4.9293,0,4.9192,4.9181,4.9199,4.9214,4.9229,4.9239,4.9247,4.9261,4.9235,4.9251,4.9274,4.9286,4.9308,4.9328,4.9341,4.934,4.9311,4.9309,4.9319,4.9324,4.9328,4.9323,4.917,4.9305,4.9303,4.9303,4.9302,4.9301,4.9284,4.9309,4.931,4.933,4.9334,4.9342,4.9363,4.9355,4.9374,4.939,4.9374,4.9401,4.9403,4.9418,4.942,4.9441,4.9419,4.9434,4.9438,4.9441,4.9445,4.9328,4.9443,4.9443,4.9443,4.9442,4.9442,0,4.9404,4.9402,4.9422,4.9433,4.9449,4.9422,4.9429,4.9444,4.9468,4.9473,4.9487,4.9513,4.9532,4.9523,4.9539,4.9557,4.9544,4.9562,4.9558,4.9558,4.9466,4.9454,4.9572,4.9572,4.9572,4.9572,4.9572,4.9572,4.9468,4.9509,4.9498,4.954,4.9538,4.9564,4.957,4.9576,4.9579,4.9609,4.9624,4.9618,4.9617,4.9632,4.9648,4.9645,4.9651,4.9673,4.9665,4.9578,4.9565,4.9553,4.9541,4.9675,4.9676,4.9755,4.9756,4.9756]}]]